Ketchikan, AK

3:51 PM AKST on November 15, 2018 (GMT -0900)
Ketchikan International

Weather History for PAKT - July, 2018

Change the Weather History Date:

Wednesday, July 11, 2018

  Actual Average Record
Temperature  
Mean Temperature 58 °F -  
Max Temperature 63 °F 62 °F 84 °F (1952)
Min Temperature 55 °F 50 °F 42 °F (1970)
Degree Days  
Heating Degree Days 6    
Growing Degree Days 8 (Base 50)    
Moisture  
Dew Point 52 °F    
Average Humidity 79    
Maximum Humidity 94    
Minimum Humidity 55    
Precipitation  
Precipitation 0.00 in - - ()
Sea Level Pressure  
Sea Level Pressure 30.29 in    
Wind  
Wind Speed 6 mph (ENE)    
Max Wind Speed 10 mph    
Max Gust Speed -    
Visibility 10 miles    
Events      
Averages and records for this station are not official NWS values.
T = Trace of Precipitation, MM = Missing Value Source: NWS Daily Summary

Daily Weather History Graph

Daily Weather History Graph

Search for Another Location

Airport or City:

Astronomy

Jul. 11, 2018 Rise Set
Actual Time 4:20 AM AKDT 9:23 PM AKDT
Civil Twilight 3:25 AM AKDT 10:18 PM AKDT
Nautical Twilight 1:35 AM AKDT 12:04 AM AKDT
Astronomical Twilight Sun does not rise Sun does not rise
Moon 3:05 AM AKDT (7/11) 8:04 PM AKDT (7/11)
Length of Visible Light 18h 52m
Length of Day
17h 02m
Waning Crescent, 3% of the Moon is Illuminated
Jul 11
Waning Crescent
Jul 12
New
Jul 19
First Quarter
Jul 27
Full
Aug 4
Last Quarter

Hourly Weather History & Observations

Time (AKDT) Temp. Dew Point Humidity Pressure Visibility Wind Dir Wind Speed Gust Speed Precip Events Conditions
12:53 AM 57.9 °F 55.9 °F 93% 30.26 in 10.0 mi ESE 8.1 mph - N/A   Overcast
1:53 AM 57.9 °F 55.9 °F 93% 30.26 in 10.0 mi SE 8.1 mph - 0.00 in   Overcast
2:53 AM 57.9 °F 55.9 °F 93% 30.26 in 10.0 mi ESE 10.4 mph - N/A   Overcast
3:48 AM 57.2 °F 55.4 °F 94% 30.27 in 10.0 mi SE 6.9 mph - N/A   Overcast
3:53 AM 57.0 °F 55.0 °F 93% 30.27 in 10.0 mi SE 5.8 mph - N/A   Overcast
4:33 AM 57.9 °F 55.0 °F 90% 30.26 in 10.0 mi SE 8.1 mph - N/A   Mostly Cloudy
4:53 AM 57.9 °F 55.0 °F 90% 30.27 in 10.0 mi SE 6.9 mph - N/A   Overcast
5:04 AM 57.0 °F 54.0 °F 89% 30.26 in 10.0 mi SE 6.9 mph - N/A   Mostly Cloudy
5:18 AM 57.0 °F 54.0 °F 89% 30.26 in 10.0 mi SE 4.6 mph - N/A   Mostly Cloudy
5:33 AM 57.0 °F 54.0 °F 89% 30.27 in 10.0 mi SE 5.8 mph - N/A   Overcast
5:53 AM 57.0 °F 53.1 °F 87% 30.27 in 10.0 mi ESE 4.6 mph - N/A   Overcast
6:04 AM 57.2 °F 53.6 °F 88% 30.27 in 10.0 mi Calm Calm - N/A   Overcast
6:53 AM 57.2 °F 53.6 °F 88% 30.28 in 10.0 mi NW 6.9 mph - N/A   Overcast
7:53 AM 55.9 °F 53.1 °F 90% 30.29 in 10.0 mi Calm Calm - N/A   Overcast
8:53 AM 55.4 °F 51.8 °F 88% 30.29 in 10.0 mi NW 3.5 mph - N/A   Overcast
9:53 AM 57.2 °F 51.8 °F 82% 30.30 in 10.0 mi Calm Calm - N/A   Overcast
10:53 AM 59.0 °F 50.0 °F 72% 30.30 in 10.0 mi Calm Calm - N/A   Mostly Cloudy
11:53 AM 59.0 °F 48.2 °F 67% 30.31 in 10.0 mi North 4.6 mph - N/A   Overcast
12:53 PM 61.0 °F 48.9 °F 64% 30.31 in 10.0 mi NNW 5.8 mph - N/A   Overcast
1:53 PM 60.8 °F 50.0 °F 68% 30.31 in 10.0 mi SE 6.9 mph - N/A   Mostly Cloudy
2:53 PM 60.8 °F 50.0 °F 68% 30.31 in 10.0 mi SSE 5.8 mph - N/A   Overcast
3:53 PM 61.0 °F 48.9 °F 64% 30.32 in 10.0 mi North 8.1 mph - N/A   Overcast
4:53 PM 60.8 °F 48.2 °F 63% 30.31 in 10.0 mi NNW 3.5 mph - N/A   Overcast
5:53 PM 62.6 °F 46.4 °F 55% 30.30 in 10.0 mi NNW 8.1 mph - N/A   Overcast
6:53 PM 59.0 °F 48.2 °F 67% 30.30 in 10.0 mi NW 6.9 mph - N/A   Overcast
7:53 PM 59.0 °F 48.2 °F 67% 30.30 in 10.0 mi NNW 8.1 mph - N/A   Overcast
8:53 PM 57.9 °F 48.0 °F 70% 30.30 in 10.0 mi NNW 9.2 mph - N/A   Overcast
9:53 PM 57.0 °F 48.0 °F 72% 30.30 in 10.0 mi NNW 4.6 mph - N/A   Overcast
10:53 PM 57.0 °F 48.0 °F 72% 30.30 in 10.0 mi NNW 6.9 mph - N/A   Overcast
11:53 PM 55.0 °F 48.0 °F 77% 30.30 in 10.0 mi Calm Calm - N/A   Overcast